Regional Weather Roundup
Issued by NWS

Home | Current Version | Previous Version | Text Only | Print | Product List | Glossary Off
Versions: 1 2 3 4 5 6 7 8 9 10 11 12 13 14 15 16 17 18 19 20 21 22 23 24 25 26 27 28 29 30 31 32 33 34 35 36 37 38 39 40 41 42 43 44 45 46 47 48 49 50

000
ASUS45 KTFX 241210
RWRMT
MONTANA REGIONAL WEATHER ROUNDUP
NATIONAL WEATHER SERVICE GREAT FALLS MT
600 AM MDT SUN MAY 24 2015

NOTE: "FAIR" INDICATES FEW OR NO CLOUDS BELOW 12000 FEET WITH NO
SIGNIFICANT WEATHER AND/OR OBSTRUCTIONS TO VISIBILITY.

MTZ001>007-043-241300-
WEST OF THE DIVIDE

CITY           SKY/WX    TMP DP  RH WIND       PRES   REMARKS
KALISPELL      SUNNY     39  36  89 W3        30.07R
MISSOULA       PTCLDY    43  40  89 W5        30.08S
BUTTE          MOCLDY    45  41  86 CALM      30.09S
MULLAN PASS    PTCLDY    46  34  62 CALM      30.11S
DEER LODGE       N/A     46  41  81 NW6       30.12S
EUREKA           N/A     39  32  75 CALM      30.08S
HAMILTON         N/A     52  45  76 NE2       30.05S
LIBBY            N/A     41  36  81 CALM      30.07S
RONAN            N/A     41  37  85 CALM      30.09S
THOMPSON FALLS   N/A     40  36  86 CALM      30.09S
$$

MTZ008-052>055-241300-
SOUTHWEST MONTANA

CITY           SKY/WX    TMP DP  RH WIND       PRES   REMARKS
BOZEMAN        CLOUDY    48  45  89 S3        30.06S
DILLON         MOCLDY    46  41  82 NE5       30.05S
W YELLOWSTONE  PTCLDY    32  32 100 CALM      30.05S
THREE FORKS      N/A     48  26  42 CALM      30.05S
TWIN BRIDGES     N/A     48  41  77 N8        30.03R
$$

MTZ009-010-012-014-046-048-049-054-241300-
EAST SLOPES AND CENTRAL MONTANA

CITY           SKY/WX    TMP DP  RH WIND       PRES   REMARKS
CUT BANK       CLEAR     39  37  92 NW5       30.12S
GREAT FALLS    FOG       44  43  96 CALM      30.09S VSB 1/4
MALMSTROM AFB  FOG       41  41 100 E1        30.10S VSB 1/4
HELENA         CLOUDY    50  44  80 W6        30.07S
CONRAD           N/A     42  42 100 CALM      30.12S VSB 0
$$

MTZ011-013-016-021-045-047-050-051-241300-
NORTH CENTRAL MONTANA

CITY           SKY/WX    TMP DP  RH WIND       PRES   REMARKS
HAVRE          CLEAR     41  38  89 CALM      30.10S
LEWISTOWN      CLOUDY    46  43  89 CALM      30.09S
N BAR RANCH    CLOUDY    48  43  81 N7        30.11R
CHINOOK          N/A     41  41 100 CALM      30.11S
FORT BENTON      N/A     45  45 100 CALM      30.11S VSB 0
$$

MTZ017>020-022>027-061-062-241300-
NORTHEAST MONTANA

CITY           SKY/WX    TMP DP  RH WIND       PRES   REMARKS
GLASGOW        MOCLDY    47  39  74 CALM      30.07S
JORDAN           N/A     51  47  86 NE6       30.07S
SIDNEY         PTCLDY    46  43  87 CALM      30.08S
WOLF POINT     PTCLDY    47  42  83 CALM      30.08F
MALTA            N/A     40  35  82 CALM      30.06S
PLENTYWOOD       N/A     46  37  71 NW3       30.09S
POPLAR           N/A     48  43  81 E5        30.09S
SCOBEY           N/A     38  30  73 CALM      30.07S
$$

MTZ028>42-056>058-241300-
SOUTHCENTRAL AND SOUTHEAST MONTANA

CITY           SKY/WX    TMP DP  RH WIND       PRES   REMARKS
BAKER          FOG       46  45  96 E7        30.06S VSB<1/4
BILLINGS       CLOUDY    49  44  83 N8        30.05R
LIVINGSTON     CLOUDY    48  45  89 E10       30.05F
MILES CITY     CLOUDY    51  49  92 N9        30.04R
BIG TIMBER       N/A     46  45  93 N3        30.09R
EKALAKA          N/A     47  44  89 NE6       30.01S
FORSYTH          N/A     52  52 100 NE3       30.04R
LAUREL           N/A     47  40  76 N2        30.04R
ROUNDUP          N/A     49  45  86 CALM      29.98S
$$

REGIONAL REPORTS...DAKOTAS

CITY           SKY/WX    TMP DP  RH WIND       PRES   REMARKS
WILLISTON      CLEAR     45  41  86 NE5       30.08S
MINOT          MOCLDY    51  47  86 CALM      30.07S
DICKINSON      CLOUDY    49  46  90 NE5       30.05S FOG
BEACH          CLOUDY    45  45 100 CALM      30.08S FOG
CROSBY         FAIR      48  48 100 SW6       30.09S
WATFORD CITY   FAIR      41  41 100 CALM      30.06S
BISMARCK       CLOUDY    54  51  90 NE3       30.07S
GRAND FORKS    MOSUNNY   50  46  86 S5        30.08R
FARGO          MOSUNNY   55  49  80 CALM      30.06F
BUFFALO SD       N/A     51  50  96 NE10      29.95F
RAPID CITY     LGT RAIN  52  51  97 E15       29.95S FOG
$$

REGIONAL REPORTS...WYOMING/IDAHO/WASHINGTON

CITY           SKY/WX    TMP DP  RH WIND       PRES   REMARKS
GILLETTE       LGT RAIN  50  48  93 NE12      29.95S
SHERIDAN       CLOUDY    49  47  93 NW7       30.00F
BUFFALO WY     RAIN      46  46 100 N14G23    29.99F FOG
CODY           CLOUDY    45  43  93 N12       30.02R
YELLOWSTONE LA   N/A     32  30  92 CALM      30.08R
IDAHO FALLS    FOG       42  41  96 NE3       29.98S VSB 1/4
SALMON         CLOUDY    52  46  82 CALM      30.03S
BOISE          MOCLDY    55  50  83 S10       29.94R
SPOKANE        PTCLDY    58  51  78 CALM      30.02S
$$

REGIONAL REPORTS...ALBERTA

CITY           SKY/WX    TMP DP  RH WIND       PRES   REMARKS
EDMONTON       CLEAR     45  37  76 E3        30.04R
CALGARY        MOCLDY    45  32  61 SW5       30.09F
LETHBRIDGE     PTCLDY    39  37  93 SW10      30.10S
MEDICINE HAT   CLEAR     45  37  76 S2        30.10S
$$

REGIONAL REPORTS...SASKATCHEWAN

CITY           SKY/WX    TMP DP  RH WIND       PRES   REMARKS
SWIFT CURRENT  CLEAR     48  36  61 SW9       30.10S
REGINA         PTCLDY    48  36  61 VRB2      30.08S
SASKATOON      PTCLDY    48  41  76 SW7       30.07S
$$



USA.gov is the U.S. government's official web portal to all federal, state and local government web resources and services.